Location: Unspecified
(0.0000°N, 0.0000°E)
Time: 22:48:37
(UTC+02:00)

Cosmos 1515 Rocket - Visible Passes

Search period start: 01 July 2016 00:00
Search period end: 11 July 2016 00:00
Orbit: 607 x 630 km, 82.5° (Epoch: 30 June)

Date Brightness Start Highest point End Pass type
(mag) Time Alt. Az. Time Alt. Az. Time Alt. Az.
01 Jul 5.6 21:36:01 10° NNE 21:36:58 15° NE 21:36:58 15° NE visible
02 Jul 4.8 21:52:29 10° N 21:54:46 29° NNE 21:54:46 29° NNE visible
03 Jul 4.7 22:09:39 10° NNW 22:12:37 40° NW 22:12:37 40° NW visible
04 Jul 5.5 20:52:05 10° ENE 20:53:19 11° E 20:53:19 11° E visible
04 Jul 5.6 22:27:32 10° NW 22:30:31 24° W 22:30:31 24° W visible
05 Jul 4.5 21:07:06 10° NNE 21:10:44 26° E 21:11:16 25° E visible
05 Jul 6.6 22:47:04 10° WNW 22:48:17 11° W 22:48:28 11° W visible
06 Jul 3.5 21:23:37 10° N 21:27:54 61° E 21:29:17 39° SSE visible
07 Jul 4.1 21:40:50 10° NNW 21:45:04 55° W 21:47:21 25° SSW visible
08 Jul 5.7 21:58:46 10° NW 22:02:15 24° W 22:05:29 11° SW visible
09 Jul 4.5 20:38:10 10° NNE 20:41:52 27° E 20:45:33 10° SE visible
09 Jul 6.7 22:18:47 10° W 22:19:26 10° W 22:20:04 10° WSW visible
10 Jul 3.5 20:54:45 10° N 20:59:02 65° E 21:03:20 10° SSE visible
